Wind_Speed
30 31 34 36 35 31 30 35 40 40 36 34 29 23 25 26 17 17 25 27 28 28 26 24 22 21 23 25 25 26 26 25 26 25 22 22 25 27 27 23 24 28 26 22 21 21 22 22 23 24 25 24 23 23 25 28 28 26 26 26 26 23 21
30 27 27 33 38 33 29 33 39 40 36 35 32 22 19 18 13 16 27 30 27 25 23 24 26 27 25 24 25 25 26 27 26 25 24 23 24 26 26 25 25 28 27 23 22 23 22 21 21 23 25 24 22 21 22 27 29 27 26 26 26 25 24
27 27 26 30 37 40 36 31 31 37 36 32 33 25 16 15 11 12 23 28 27 27 23 20 23 28 29 28 27 24 24 26 26 25 24 25 25 25 25 26 27 28 26 23 23 24 22 22 22 23 26 25 23 22 22 26 29 29 28 27 27 28 27
24 27 30 31 35 41 43 36 30 36 37 32 34 31 23 18 13 11 17 20 23 27 26 22 23 26 28 29 29 26 24 26 26 25 23 22 24 25 25 26 26 24 23 22 22 23 23 24 24 24 26 27 25 24 24 26 29 31 30 29 29 29 29
25 29 35 37 36 37 43 45 38 35 35 35 36 36 35 28 16 10 12 13 21 27 23 22 23 23 23 26 29 28 26 26 26 25 22 21 23 25 25 29 26 19 19 21 22 24 25 26 25 24 26 28 27 26 25 26 29 31 32 31 31 30 30
30 32 34 34 34 33 36 43 44 38 33 34 30 25 34 39 28 18 14 12 19 26 24 24 25 22 19 22 26 28 28 27 25 23 22 24 26 24 21 26 25 16 14 18 22 26 28 28 26 25 26 28 29 28 26 26 28 31 32 32 33 32 31
26 27 27 29 31 32 33 35 42 43 37 35 29 20 29 39 34 31 27 19 18 22 21 22 24 23 22 21 22 25 26 24 22 20 21 24 27 24 20 22 23 18 13 15 19 23 28 31 28 26 26 29 30 29 27 27 28 30 32 33 32 33 33
22 23 24 28 29 31 35 35 38 44 43 40 34 28 32 34 32 34 28 19 22 26 18 15 19 22 23 22 22 24 24 24 23 22 23 22 23 25 23 20 20 20 15 15 19 22 26 31 31 27 26 29 30 29 29 29 28 29 33 33 30 30 31
17 20 21 26 32 34 36 37 37 40 44 45 39 32 31 31 34 37 26 16 26 31 21 15 15 18 21 23 25 27 26 25 24 23 21 18 16 21 23 20 19 21 18 17 21 23 26 30 32 29 26 28 31 31 30 30 29 29 33 33 29 28 28
13 16 17 23 31 33 33 36 37 37 40 46 45 38 33 30 32 37 32 25 29 30 26 23 20 17 17 20 24 26 26 25 25 24 22 20 18 20 22 20 20 22 22 22 23 25 27 31 32 30 27 27 30 31 31 31 30 31 32 31 29 29 27
20 20 20 21 25 28 29 32 36 37 38 41 43 40 39 37 32 32 37 36 32 29 28 27 27 23 19 19 21 22 21 21 23 25 25 23 23 23 23 22 23 25 25 24 24 26 29 32 32 30 28 26 27 31 33 32 32 33 32 28 27 28 27
27 23 22 21 22 26 29 30 33 36 37 39 40 39 41 43 36 32 37 39 37 35 32 27 28 28 24 23 24 23 21 18 18 20 22 24 28 28 25 25 26 27 25 23 24 26 27 31 32 31 28 25 26 30 31 32 35 34 30 27 26 26 27
31 28 25 23 24 26 28 29 30 32 34 38 41 41 41 42 40 37 37 39 40 42 41 34 30 29 28 28 27 27 27 25 21 20 19 21 27 29 27 25 23 23 24 25 26 25 24 28 31 30 28 26 27 30 30 31 36 36 31 27 26 26 27
31 32 30 28 28 28 28 30 30 30 32 36 39 41 39 40 42 41 39 40 42 43 43 41 36 32 30 29 28 29 29 28 27 26 23 21 22 23 26 28 24 21 21 24 28 28 25 27 30 29 29 29 29 31 31 31 35 38 35 31 30 29 28
27 30 32 32 32 32 31 31 31 31 32 34 37 40 40 40 42 41 39 40 41 39 40 42 41 39 37 32 28 28 27 25 26 26 26 25 23 21 26 32 31 25 20 23 28 29 28 29 29 30 30 30 29 29 31 30 32 37 36 32 32 32 32
26 26 28 30 32 33 33 34 34 34 35 34 35 37 38 40 42 41 40 42 41 38 37 39 40 41 45 43 37 32 28 26 25 23 24 27 27 24 26 33 34 28 22 24 27 27 30 31 30 32 31 30 29 29 31 29 29 34 36 33 33 35 35
27 26 25 27 28 26 30 37 38 36 36 35 35 36 36 37 38 39 40 42 41 36 34 37 39 40 43 46 45 42 38 35 32 28 27 28 27 26 30 36 36 30 25 27 28 26 33 33 32 33 31 29 31 31 32 30 27 32 36 35 35 37 36
25 25 25 26 22 20 29 37 37 36 37 37 37 38 37 36 37 38 38 39 38 36 35 38 41 41 40 41 42 43 43 43 42 38 35 33 30 32 35 36 35 32 33 35 31 26 34 36 34 34 32 31 32 32 31 31 30 32 35 36 36 36 35
21 21 22 20 18 22 28 29 29 33 36 36 38 39 39 38 38 38 37 35 35 35 36 39 41 42 40 39 38 39 39 40 42 41 39 36 36 39 38 34 33 37 42 41 33 27 36 41 38 37 37 33 32 33 33 34 34 34 33 34 35 35 35
20 20 21 17 16 21 22 18 20 26 30 34 36 37 37 39 39 40 40 36 34 33 32 33 35 39 43 43 41 41 41 40 41 40 39 38 40 44 44 40 39 41 43 41 34 27 35 45 42 40 40 36 35 37 38 37 37 35 33 35 36 36 35
22 22 23 21 19 21 20 17 17 18 19 22 22 22 28 33 33 36 40 37 35 35 33 30 28 30 36 41 40 38 39 43 45 43 41 40 42 48 50 45 43 43 42 41 35 28 32 45 46 42 41 40 39 40 39 38 37 36 36 37 38 37 36
23 22 20 18 16 19 20 19 17 16 14 14 15 18 25 29 25 27 35 37 36 36 35 34 32 28 28 32 34 33 33 37 43 45 43 41 42 46 47 43 43 44 42 39 35 28 30 42 47 44 44 43 42 41 40 38 38 38 38 39 39 38 38
24 23 20 17 14 15 16 14 14 15 16 18 20 24 29 30 25 23 28 33 36 36 35 35 36 33 30 32 33 32 29 30 35 41 43 42 41 43 42 40 42 43 41 39 35 29 30 41 48 47 45 43 42 42 40 39 39 39 40 40 40 39 38
28 25 23 21 18 14 12 10 10 14 17 18 18 18 20 24 24 25 28 30 32 34 35 35 37 38 37 34 30 28 29 32 36 38 40 41 41 40 40 41 43 43 40 38 33 28 30 40 46 46 44 43 44 43 42 41 41 41 41 41 41 40 39
31 27 25 24 21 15 13 12 9 10 13 15 16 15 14 17 21 26 33 36 34 32 32 33 36 36 35 33 31 29 30 33 33 34 36 38 39 39 40 41 42 41 39 37 31 27 28 35 40 40 41 43 45 43 42 42 42 42 43 42 41 39 36
31 30 28 25 22 19 17 16 14 14 14 15 18 19 18 18 21 25 31 36 36 33 31 32 33 30 28 30 33 35 36 35 31 29 31 33 34 36 38 40 40 39 37 33 28 26 27 30 33 34 37 43 45 44 44 44 44 44 43 40 37 33 30
28 29 27 20 17 21 20 15 15 18 18 16 18 22 21 21 23 25 27 31 33 33 32 32 32 30 29 30 32 36 41 41 35 30 29 28 29 31 33 35 35 35 33 31 28 27 29 29 30 32 38 43 45 44 44 44 43 42 38 34 29 24 21
27 27 25 18 14 16 18 16 16 20 24 25 23 24 25 25 24 25 24 22 24 29 29 29 32 33 32 34 36 36 39 39 36 33 31 29 27 26 25 27 29 31 32 30 27 27 28 30 31 34 38 41 41 40 40 39 37 36 33 30 27 24 24
25 23 20 18 15 13 16 20 20 21 26 30 26 23 24 23 20 19 16 11 11 19 24 29 35 33 29 30 32 30 29 29 28 25 22 19 18 19 21 25 27 29 30 30 29 29 31 33 36 38 39 38 37 37 36 33 30 28 26 26 26 26 26
24 20 15 15 16 15 17 20 23 24 26 30 28 22 20 20 18 17 15 11 12 16 20 20 21 20 19 21 21 18 17 17 18 19 19 19 21 24 25 26 26 26 27 29 30 32 34 36 39 39 38 36 35 35 33 29 27 24 20 18 19 21 22
21 17 13 15 17 18 18 18 23 26 22 23 24 21 16 16 17 20 21 19 18 19 22 24 26 25 25 27 28 28 29 28 26 26 26 27 29 31 30 30 30 31 33 34 35 37 38 38 37 36 34 32 32 32 31 29 27 23 20 20 22 24 25
16 16 16 20 21 21 22 22 24 22 15 9 7 7 9 12 13 13 18 20 20 22 25 29 30 28 26 26 27 27 28 28 29 31 31 31 33 35 37 39 41 40 39 39 38 38 37 35 32 29 28 26 26 26 25 23 23 24 26 26 26 26 27
17 18 19 23 23 20 20 20 21 21 20 15 11 12 8 9 15 18 19 21 22 25 27 28 29 29 27 25 25 25 26 28 30 31 32 32 34 37 41 41 41 39 37 35 34 32 30 29 27 23 20 20 20 19 17 19 21 24 26 27 26 26 26
18 20 20 21 22 21 19 19 19 21 24 25 23 22 21 19 19 21 22 23 24 26 28 27 27 29 28 27 27 26 27 29 31 31 32 33 34 37 38 37 35 35 33 32 30 27 24 24 24 20 17 16 18 19 18 19 20 21 23 25 26 24 22
12 17 19 20 21 21 21 22 23 25 27 30 31 33 31 28 26 25 24 23 23 25 27 28 29 30 28 26 25 24 24 25 26 25 26 28 29 30 30 30 29 29 28 27 27 25 22 21 21 20 17 15 16 18 18 17 17 16 17 18 19 17 16
10 14 19 18 17 19 22 26 28 30 32 33 33 32 28 25 23 22 20 20 21 22 23 24 26 26 24 21 20 20 18 18 19 19 19 19 19 20 21 22 22 22 22 22 22 22 21 19 18 18 17 16 16 17 18 17 16 15 14 13 12 12 12
11 15 18 18 17 19 23 29 32 32 31 31 30 28 24 21 18 16 16 17 19 19 19 19 20 22 21 19 17 17 16 14 14 17 17 16 14 14 14 14 14 16 17 17 18 19 20 19 19 19 18 18 17 17 18 18 17 14 12 11 11 12 12
Wind_Direction
212 214 213 210 212 214 209 208 215 217 215 220 233 240 234 234 239 233 232 239 238 236 238 235 230 232 230 227 228 230 229 226 224 224 224 233 246 250 242 233 226 225 225 226 230 234 235 235 235 236 237 235 231 230 227 222 218 216 215 213 213 214 214
211 212 214 213 215 218 211 210 216 217 218 223 229 235 234 231 241 234 232 239 238 233 231 227 229 233 229 226 229 230 229 227 225 223 223 230 242 250 244 230 222 222 222 224 231 235 234 233 234 237 239 236 230 228 227 223 220 218 218 215 214 217 217
211 206 212 216 216 219 220 220 218 214 215 218 220 226 231 227 237 236 232 238 242 239 231 223 231 234 228 226 227 223 220 220 220 221 222 225 232 243 239 226 221 222 222 226 232 234 232 232 233 235 238 237 231 226 223 222 221 220 219 217 217 218 219
205 201 207 214 214 214 220 226 224 217 217 216 216 221 227 230 235 234 233 236 240 240 231 224 234 236 229 226 222 217 217 218 217 220 222 220 227 241 240 227 221 221 224 230 233 232 230 230 232 233 235 235 231 225 221 219 220 220 220 220 220 220 220
196 204 207 211 213 208 211 220 222 217 216 218 221 222 223 227 235 233 232 234 235 237 230 223 232 234 225 221 217 214 218 222 222 222 220 217 226 237 233 224 223 225 230 232 231 228 226 228 231 233 235 236 231 225 220 218 219 220 219 220 222 222 221
198 212 214 213 217 214 210 214 218 219 216 216 221 223 220 223 230 234 238 241 237 236 232 228 229 230 222 214 212 211 213 220 225 223 217 217 227 234 233 231 229 227 234 235 231 226 221 223 229 231 234 235 231 226 220 216 217 219 219 220 224 226 224
207 215 219 216 217 219 220 217 217 221 222 218 219 220 220 222 226 232 238 245 239 233 232 229 223 222 220 213 209 209 211 216 221 222 223 223 224 231 247 251 236 228 239 239 237 232 223 222 227 229 232 234 231 226 221 217 216 218 220 221 224 227 228
223 217 218 220 218 218 224 223 218 219 222 223 223 225 226 225 223 225 231 239 234 230 234 233 219 216 220 218 213 211 212 216 221 228 231 223 216 223 245 257 236 227 235 229 231 239 232 226 226 228 232 233 231 226 221 219 217 216 221 223 224 227 227
224 215 211 215 215 213 219 222 219 217 219 223 226 226 227 228 224 224 229 235 230 228 230 226 208 202 213 222 220 216 217 221 225 229 227 219 216 224 238 253 243 234 241 239 238 245 244 235 226 226 233 232 228 226 222 221 219 217 221 225 226 230 228
210 209 208 208 208 208 214 221 222 219 219 222 224 222 225 231 228 225 230 235 230 225 222 218 207 197 204 216 218 215 217 224 229 231 233 241 248 234 229 245 253 249 255 259 253 251 250 242 228 225 234 232 226 225 223 222 220 218 222 226 229 234 231
219 214 215 211 207 208 212 219 223 223 222 223 223 221 226 233 232 226 230 236 235 226 218 212 210 211 211 211 211 209 212 221 226 227 231 240 242 231 229 245 254 250 253 261 262 258 253 245 231 227 235 233 225 224 224 223 219 218 225 231 232 234 230
227 224 221 216 213 216 217 217 220 223 225 225 223 223 226 231 234 230 227 233 237 233 227 217 211 214 214 209 209 213 222 231 227 223 229 233 230 231 244 257 254 247 248 258 268 268 259 246 233 228 232 231 224 223 224 222 220 221 228 232 230 231 227
224 229 231 225 220 225 226 222 219 220 224 226 226 228 227 228 234 236 230 230 235 235 235 232 225 220 216 215 219 226 235 241 236 229 233 235 233 237 251 259 252 246 251 257 265 272 261 241 229 225 227 226 222 221 221 222 222 223 230 233 230 230 228
223 225 232 232 229 231 230 228 226 222 224 227 229 232 233 230 234 237 235 235 235 233 234 236 235 231 227 227 229 231 236 240 237 233 232 233 234 239 250 254 244 243 261 265 263 264 251 229 221 223 224 224 221 217 216 220 222 223 229 235 234 232 230
229 223 227 230 232 234 233 230 230 228 228 228 228 230 233 234 236 236 236 239 239 234 232 235 236 235 235 237 233 228 230 231 230 231 232 233 236 241 252 254 246 243 265 278 272 260 238 220 217 221 222 223 222 218 216 219 221 223 228 234 233 232 233
234 226 225 229 231 236 239 236 231 230 231 231 231 230 230 232 235 236 236 238 238 235 233 235 236 233 235 240 239 232 228 226 227 232 235 238 242 245 250 252 248 245 259 280 281 255 227 217 217 219 221 220 219 217 215 216 219 222 226 231 232 232 234
235 229 227 232 234 237 240 236 232 233 233 232 233 234 233 232 232 234 236 237 238 237 235 236 237 233 233 237 239 238 235 234 236 240 243 245 246 247 250 250 249 249 258 277 282 250 221 217 218 217 217 216 214 213 214 215 215 216 221 226 230 233 236
232 228 225 231 234 235 237 234 232 235 238 237 236 236 236 236 235 236 238 239 240 239 237 236 238 237 235 234 237 238 238 239 242 244 245 246 243 246 250 246 243 250 263 274 278 250 221 218 219 218 217 214 213 214 216 217 217 216 218 223 228 233 237
229 226 221 224 229 232 237 238 234 234 238 241 244 245 241 238 238 239 240 240 239 237 237 237 237 238 237 235 236 238 237 241 244 243 241 241 241 244 247 242 243 257 265 268 272 253 225 219 220 220 219 215 213 215 219 222 222 221 222 225 230 235 236
224 220 216 222 233 235 237 239 235 233 236 239 244 250 247 240 238 239 238 239 239 237 237 238 236 236 235 234 237 239 239 240 241 238 235 236 240 246 248 247 252 261 262 261 266 258 231 221 220 222 221 218 216 217 220 223 225 226 227 228 232 235 235
217 218 221 228 240 242 237 232 232 233 235 238 247 259 253 243 240 239 237 238 239 237 236 236 236 236 232 230 232 235 235 236 236 234 233 235 240 246 249 249 251 255 257 257 261 262 238 223 221 224 224 222 221 221 222 225 226 227 227 228 231 233 233
216 220 227 230 236 239 230 221 224 228 232 239 255 269 259 247 244 243 237 237 238 236 233 232 236 240 234 226 226 230 232 235 237 236 234 233 235 240 243 244 244 249 255 255 257 261 245 225 220 226 228 225 224 224 224 225 226 226 226 227 230 231 231
219 220 227 230 231 228 213 203 210 221 237 248 251 258 257 250 250 254 247 241 239 237 235 233 233 236 235 230 230 235 237 238 238 237 233 231 231 233 236 239 241 246 252 255 256 260 246 225 221 225 227 224 224 226 226 226 226 226 227 228 229 232 233
219 219 226 231 232 226 212 206 208 217 236 247 244 248 254 248 247 254 256 250 243 238 236 234 231 230 232 232 233 237 239 237 238 239 234 229 230 231 232 237 242 245 249 254 257 258 245 229 224 225 225 221 221 223 224 223 222 224 226 227 229 232 234
216 218 225 232 236 231 214 206 206 212 226 232 229 234 245 241 235 240 247 249 247 243 238 234 232 231 230 230 230 234 239 239 240 241 236 229 230 232 232 236 240 243 249 254 253 250 243 233 229 231 230 223 220 220 221 221 222 223 225 226 227 229 231
217 218 225 232 236 229 216 209 215 222 225 229 234 237 240 241 235 232 238 242 243 244 240 235 234 235 233 231 232 236 244 247 246 244 240 233 231 233 234 237 240 243 248 248 240 235 236 233 232 235 232 225 220 219 219 221 223 223 223 223 223 223 224
215 219 223 230 233 225 218 214 219 223 225 231 241 243 242 247 248 243 240 238 234 235 239 241 243 243 239 236 237 240 246 249 247 245 244 242 240 240 240 240 240 240 240 236 231 231 234 232 230 231 226 219 215 214 215 217 218 218 216 213 212 213 217
214 220 221 223 227 214 203 202 210 222 231 235 243 250 249 250 254 253 249 247 238 232 233 237 238 236 234 233 234 237 242 243 242 243 247 249 250 248 243 236 232 230 228 226 223 221 221 220 219 217 213 208 206 207 208 209 209 209 209 209 211 220 230
215 223 221 214 210 204 209 219 220 225 236 240 245 258 259 253 256 256 247 246 235 221 220 227 229 226 222 222 224 230 237 239 236 236 238 238 232 225 219 218 222 226 226 222 217 214 211 209 206 203 201 201 202 202 202 202 203 205 209 214 221 231 238
211 218 218 204 201 211 226 232 228 228 239 244 246 257 262 251 248 246 227 190 168 181 189 194 197 189 174 171 175 175 176 178 177 180 184 186 185 191 201 209 213 216 216 213 211 209 203 197 196 194 194 196 199 199 199 199 198 199 205 215 226 237 248
208 203 196 187 193 204 209 216 224 228 237 246 248 253 254 240 240 245 229 195 161 159 165 160 155 153 151 148 150 154 158 162 172 184 191 193 191 189 190 189 185 186 189 190 191 190 187 185 186 187 187 189 193 197 199 200 202 209 226 241 249 257 265
204 188 192 205 212 216 216 221 230 227 216 209 221 243 240 215 200 209 214 196 161 147 158 167 167 164 161 159 161 165 167 171 181 188 189 189 188 183 176 172 171 173 175 177 179 180 179 179 179 182 186 190 194 199 205 214 227 239 249 255 260 265 268
196 189 203 220 221 215 217 227 232 222 207 187 142 103 103 159 163 165 180 184 169 153 155 167 175 172 166 164 166 168 165 161 164 168 170 171 171 168 166 165 167 168 169 171 173 175 178 179 180 185 195 201 206 214 227 239 247 251 252 253 257 260 262
201 202 210 217 211 202 202 209 210 204 204 203 183 150 132 134 150 162 164 161 158 149 143 146 153 153 149 147 150 152 151 149 149 152 156 159 160 161 163 165 167 170 172 174 175 177 181 186 189 195 203 209 215 225 234 240 243 245 245 247 250 255 261
188 202 209 210 209 207 198 191 191 189 187 188 179 162 149 143 147 156 157 150 145 143 142 143 144 141 138 141 146 147 145 145 147 148 152 157 161 163 166 168 171 175 178 180 183 185 188 192 196 202 209 214 217 222 230 238 243 245 247 249 253 260 265
152 193 205 204 208 210 194 179 178 179 174 169 162 155 150 143 138 144 153 155 151 148 148 150 151 148 143 140 146 153 154 153 154 155 155 158 163 166 171 176 179 182 185 188 191 194 198 202 206 212 219 226 230 233 239 249 257 263 267 265 259 259 263
165 192 198 197 203 207 195 182 178 176 170 161 154 149 143 135 128 132 145 156 162 163 160 157 156 157 155 149 150 160 167 167 169 174 177 180 184 186 188 192 196 200 203 206 209 212 216 221 225 228 234 241 247 248 249 257 266 270 266 254 248 255 267
Height
3097 3098 3102 3106 3107 3106 3109 3111 3109 3109 3116 3119 3116 3114 3115 3117 3114 3111 3111 3111 3111 3114 3114 3117 3121 3121 3123 3125 3127 3128 3130 3131 3133 3134 3136 3136 3136 3138 3139 3139 3139 3140 3143 3145 3146 3148 3149 3150 3152 3153 3155 3156 3158 3160 3162 3164 3167 3169 3171 3173 3175 3177 3179
3093 3098 3101 3103 3104 3104 3104 3104 3106 3111 3115 3115 3113 3112 3111 3112 3110 3106 3107 3107 3106 3107 3107 3111 3117 3117 3120 3123 3124 3125 3126 3128 3129 3131 3134 3135 3135 3135 3136 3136 3136 3137 3140 3141 3143 3145 3146 3147 3149 3151 3152 3154 3156 3158 3160 3162 3164 3167 3169 3171 3173 3175 3177
3091 3096 3099 3099 3100 3101 3100 3100 3104 3106 3105 3104 3108 3108 3106 3108 3106 3103 3104 3103 3103 3102 3103 3108 3113 3113 3116 3119 3121 3122 3123 3125 3126 3127 3130 3132 3133 3133 3133 3133 3133 3134 3136 3138 3140 3142 3143 3145 3147 3148 3150 3152 3154 3156 3158 3160 3162 3164 3167 3169 3171 3173 3175
3088 3092 3093 3091 3091 3095 3098 3098 3099 3098 3097 3099 3102 3102 3102 3104 3103 3101 3102 3101 3100 3099 3101 3106 3109 3110 3111 3114 3116 3119 3120 3121 3123 3124 3126 3128 3130 3130 3131 3131 3130 3132 3134 3136 3138 3139 3141 3142 3144 3146 3147 3149 3152 3154 3156 3157 3159 3162 3164 3166 3169 3170 3173
3083 3083 3081 3081 3083 3087 3091 3092 3091 3091 3093 3096 3098 3096 3098 3101 3098 3098 3099 3097 3096 3097 3099 3103 3105 3106 3108 3110 3113 3116 3118 3119 3120 3121 3123 3125 3126 3127 3129 3129 3129 3130 3132 3134 3135 3137 3138 3140 3141 3143 3145 3146 3149 3151 3153 3155 3157 3159 3161 3164 3166 3168 3170
3075 3075 3075 3079 3082 3084 3086 3087 3087 3087 3088 3091 3091 3087 3092 3096 3094 3094 3095 3092 3092 3096 3098 3099 3102 3104 3105 3107 3109 3112 3114 3116 3117 3118 3121 3121 3122 3124 3126 3127 3127 3129 3130 3132 3133 3134 3136 3137 3138 3140 3142 3144 3146 3148 3151 3153 3155 3157 3158 3161 3163 3165 3168
3070 3073 3075 3078 3080 3083 3084 3084 3085 3087 3085 3085 3085 3084 3088 3090 3089 3093 3094 3089 3090 3095 3096 3096 3099 3101 3103 3105 3107 3109 3112 3114 3115 3117 3118 3116 3117 3121 3123 3124 3125 3126 3128 3129 3131 3132 3134 3134 3136 3138 3139 3141 3143 3146 3148 3150 3152 3154 3156 3159 3161 3163 3165
3069 3071 3073 3075 3077 3080 3080 3078 3080 3082 3080 3081 3082 3084 3087 3085 3085 3090 3090 3085 3087 3093 3094 3095 3097 3100 3102 3103 3105 3108 3110 3112 3114 3115 3117 3115 3114 3117 3121 3121 3121 3124 3126 3127 3128 3129 3131 3132 3133 3135 3136 3138 3140 3143 3146 3148 3150 3152 3154 3156 3158 3160 3163
3066 3065 3067 3069 3070 3072 3072 3072 3073 3074 3077 3079 3080 3082 3085 3081 3080 3084 3083 3081 3085 3091 3094 3095 3096 3099 3101 3103 3104 3106 3108 3110 3111 3113 3114 3113 3112 3115 3118 3118 3119 3121 3123 3124 3125 3126 3128 3129 3130 3132 3133 3135 3138 3140 3143 3145 3148 3150 3151 3153 3155 3157 3160
3058 3057 3057 3059 3062 3065 3067 3069 3069 3071 3073 3075 3075 3078 3079 3076 3076 3080 3079 3079 3084 3089 3091 3094 3096 3098 3100 3101 3101 3103 3106 3108 3109 3111 3111 3110 3111 3114 3116 3117 3118 3120 3121 3122 3123 3123 3124 3126 3127 3129 3130 3132 3135 3138 3140 3143 3145 3147 3148 3150 3153 3154 3157
3053 3054 3055 3058 3060 3062 3064 3066 3067 3068 3070 3071 3072 3072 3072 3072 3075 3076 3076 3080 3084 3086 3088 3090 3093 3095 3097 3099 3100 3101 3103 3105 3107 3108 3108 3109 3110 3112 3114 3115 3116 3118 3119 3120 3120 3121 3121 3122 3125 3127 3128 3130 3133 3135 3137 3140 3143 3144 3146 3148 3150 3152 3154
3053 3054 3056 3058 3059 3059 3060 3061 3063 3065 3067 3068 3068 3067 3068 3073 3073 3069 3072 3080 3082 3082 3085 3087 3089 3092 3094 3097 3099 3100 3102 3103 3104 3105 3106 3107 3109 3109 3111 3112 3114 3115 3117 3118 3118 3118 3118 3120 3122 3124 3125 3127 3131 3132 3134 3138 3140 3141 3143 3145 3147 3148 3151
3052 3054 3054 3055 3057 3057 3057 3057 3059 3062 3064 3064 3064 3064 3067 3071 3068 3064 3070 3078 3078 3079 3083 3085 3087 3090 3091 3093 3096 3098 3100 3100 3102 3104 3104 3105 3106 3106 3106 3108 3110 3112 3114 3115 3115 3116 3116 3117 3119 3121 3123 3125 3128 3129 3131 3134 3136 3138 3140 3141 3143 3145 3147
3049 3052 3052 3053 3054 3055 3054 3054 3055 3058 3060 3062 3063 3063 3064 3066 3065 3065 3070 3073 3074 3077 3080 3082 3085 3087 3088 3091 3093 3094 3096 3097 3099 3101 3102 3103 3103 3103 3104 3104 3105 3108 3110 3111 3112 3113 3114 3115 3116 3118 3120 3122 3124 3126 3128 3130 3133 3135 3137 3137 3139 3141 3143
3045 3047 3049 3051 3052 3051 3051 3052 3053 3055 3056 3057 3059 3060 3062 3063 3062 3064 3068 3068 3068 3073 3077 3079 3082 3084 3085 3087 3089 3091 3092 3094 3095 3097 3098 3100 3101 3102 3103 3102 3102 3104 3106 3107 3108 3109 3111 3112 3114 3116 3117 3120 3122 3123 3125 3127 3129 3132 3133 3134 3135 3137 3139
3042 3044 3047 3048 3049 3050 3049 3048 3050 3051 3052 3053 3054 3055 3057 3059 3060 3062 3064 3063 3064 3070 3074 3075 3078 3080 3081 3081 3084 3087 3089 3090 3092 3093 3095 3096 3097 3100 3101 3099 3100 3101 3103 3103 3104 3106 3108 3110 3112 3113 3115 3117 3119 3120 3122 3124 3127 3129 3130 3131 3132 3133 3134
3040 3043 3045 3046 3048 3049 3044 3042 3045 3047 3047 3049 3051 3051 3052 3055 3057 3059 3058 3058 3063 3068 3071 3072 3072 3075 3076 3077 3079 3082 3085 3086 3088 3089 3091 3092 3094 3096 3096 3096 3098 3098 3098 3100 3102 3103 3105 3107 3109 3110 3112 3114 3115 3117 3119 3121 3124 3125 3126 3127 3128 3127 3129
3039 3041 3044 3046 3045 3040 3035 3038 3044 3046 3046 3047 3047 3047 3049 3052 3054 3055 3055 3058 3062 3065 3067 3068 3068 3069 3071 3073 3076 3078 3080 3082 3083 3085 3087 3088 3090 3092 3091 3093 3095 3094 3094 3097 3099 3101 3102 3104 3106 3107 3109 3111 3112 3114 3116 3118 3120 3121 3122 3123 3124 3124 3125
3037 3039 3042 3041 3036 3032 3033 3039 3044 3045 3046 3046 3045 3044 3046 3048 3050 3051 3053 3055 3058 3060 3062 3063 3064 3066 3068 3070 3072 3074 3076 3078 3079 3081 3083 3084 3085 3086 3087 3090 3091 3090 3090 3094 3097 3098 3099 3101 3103 3104 3105 3107 3109 3111 3113 3114 3116 3117 3119 3120 3120 3121 3124
3035 3036 3037 3034 3030 3031 3036 3039 3040 3042 3043 3044 3044 3042 3041 3044 3047 3048 3049 3051 3054 3056 3057 3058 3060 3062 3064 3066 3068 3069 3071 3074 3074 3075 3078 3080 3080 3081 3084 3086 3087 3087 3088 3090 3092 3094 3096 3097 3098 3100 3101 3104 3106 3107 3108 3110 3112 3114 3116 3117 3117 3118 3122
3032 3032 3031 3031 3031 3032 3033 3035 3036 3038 3038 3039 3040 3038 3036 3038 3040 3042 3045 3047 3050 3052 3053 3055 3057 3057 3058 3060 3062 3063 3065 3068 3068 3069 3072 3075 3077 3078 3079 3081 3083 3083 3085 3087 3088 3090 3091 3092 3094 3096 3098 3100 3102 3102 3104 3106 3108 3110 3112 3113 3113 3116 3119
3029 3030 3029 3029 3028 3026 3028 3031 3032 3033 3034 3035 3036 3035 3034 3035 3036 3038 3042 3044 3045 3047 3050 3052 3054 3054 3054 3055 3056 3057 3061 3063 3063 3064 3067 3070 3072 3073 3073 3076 3078 3079 3081 3083 3085 3086 3087 3088 3090 3092 3094 3096 3098 3099 3101 3103 3105 3107 3108 3109 3111 3113 3115
3027 3027 3025 3023 3021 3022 3025 3027 3028 3030 3032 3033 3035 3035 3034 3036 3038 3038 3039 3041 3042 3043 3045 3047 3050 3051 3050 3051 3052 3056 3059 3061 3060 3060 3062 3065 3066 3067 3068 3071 3073 3074 3077 3079 3081 3082 3083 3083 3086 3088 3090 3093 3095 3096 3098 3100 3102 3103 3105 3106 3108 3110 3112
3022 3023 3021 3019 3019 3020 3022 3024 3025 3028 3030 3033 3036 3034 3030 3033 3036 3035 3034 3036 3037 3039 3041 3043 3044 3045 3045 3048 3052 3054 3056 3056 3054 3056 3058 3060 3061 3063 3065 3067 3068 3070 3073 3074 3076 3079 3079 3080 3082 3085 3087 3089 3091 3092 3094 3096 3098 3100 3102 3103 3105 3107 3109
3018 3019 3018 3017 3018 3019 3020 3022 3024 3027 3030 3033 3033 3029 3026 3029 3031 3031 3031 3031 3032 3035 3037 3038 3039 3040 3041 3044 3048 3050 3050 3050 3051 3053 3055 3056 3058 3060 3061 3062 3063 3066 3068 3070 3072 3074 3075 3077 3079 3081 3083 3086 3087 3089 3092 3093 3096 3097 3099 3100 3102 3105 3107
3014 3016 3016 3016 3017 3016 3016 3019 3022 3026 3030 3030 3027 3025 3025 3026 3028 3029 3030 3029 3029 3031 3033 3033 3035 3036 3037 3039 3043 3045 3045 3045 3047 3049 3050 3052 3054 3055 3056 3057 3060 3062 3064 3065 3067 3069 3071 3073 3075 3078 3080 3082 3084 3087 3088 3090 3092 3094 3095 3097 3100 3102 3104
3011 3012 3012 3013 3012 3011 3013 3017 3020 3023 3025 3025 3023 3023 3024 3024 3025 3027 3027 3026 3027 3028 3030 3031 3032 3033 3034 3036 3039 3041 3040 3041 3044 3045 3046 3048 3050 3050 3052 3054 3056 3057 3059 3060 3063 3065 3067 3069 3071 3073 3075 3078 3081 3083 3085 3087 3089 3090 3092 3094 3096 3099 3101
3007 3007 3007 3008 3008 3007 3011 3016 3018 3019 3019 3019 3020 3021 3021 3022 3023 3024 3024 3025 3025 3026 3028 3030 3028 3028 3031 3033 3034 3035 3035 3037 3040 3041 3042 3043 3045 3047 3048 3049 3050 3051 3053 3056 3059 3062 3064 3065 3067 3070 3072 3075 3078 3080 3082 3084 3085 3087 3089 3091 3093 3095 3097
3004 3003 3003 3005 3005 3006 3009 3012 3015 3015 3015 3016 3018 3018 3018 3019 3021 3022 3023 3024 3024 3024 3024 3024 3023 3025 3028 3029 3029 3029 3031 3032 3035 3037 3038 3040 3042 3043 3044 3044 3045 3047 3049 3052 3055 3057 3059 3061 3064 3067 3070 3072 3075 3076 3078 3081 3083 3085 3088 3089 3091 3093 3095
3000 3000 3001 3002 3003 3005 3008 3010 3011 3012 3012 3013 3016 3016 3016 3017 3019 3020 3021 3020 3020 3021 3019 3019 3020 3022 3024 3026 3027 3027 3027 3028 3030 3032 3035 3037 3039 3040 3040 3041 3043 3045 3048 3050 3052 3055 3057 3059 3061 3064 3066 3069 3071 3073 3075 3078 3080 3082 3085 3086 3089 3092 3094
2996 2998 2999 3000 3001 3004 3005 3006 3007 3009 3010 3012 3014 3014 3014 3015 3017 3019 3019 3017 3015 3015 3014 3015 3016 3017 3018 3022 3023 3023 3024 3025 3026 3028 3031 3033 3035 3037 3038 3040 3042 3044 3047 3049 3051 3054 3056 3058 3060 3062 3064 3066 3069 3071 3073 3075 3077 3079 3082 3084 3087 3091 3093
2995 2996 2996 2997 2999 3002 3002 3002 3004 3007 3009 3010 3012 3012 3013 3014 3016 3018 3018 3017 3014 3011 3011 3012 3013 3014 3015 3018 3020 3022 3024 3025 3026 3027 3029 3031 3032 3034 3036 3039 3041 3043 3046 3048 3050 3053 3054 3056 3059 3061 3063 3066 3068 3070 3072 3074 3076 3077 3079 3082 3085 3087 3088
2992 2993 2994 2996 2999 3001 3001 3001 3002 3004 3006 3007 3009 3012 3014 3015 3016 3015 3015 3016 3015 3011 3009 3010 3012 3014 3016 3018 3020 3023 3025 3027 3027 3028 3030 3032 3034 3036 3038 3040 3042 3044 3047 3049 3051 3053 3055 3057 3059 3061 3063 3066 3068 3070 3072 3073 3074 3075 3076 3079 3081 3083 3084
2989 2991 2993 2996 2997 2998 2999 3000 3000 3002 3003 3003 3004 3008 3011 3014 3015 3016 3016 3017 3016 3013 3011 3012 3013 3016 3018 3020 3022 3025 3027 3027 3028 3030 3032 3034 3036 3037 3039 3041 3043 3045 3047 3049 3051 3053 3055 3057 3059 3061 3063 3064 3066 3068 3069 3071 3073 3074 3075 3077 3078 3079 3080
2989 2991 2992 2994 2995 2996 2998 2999 3000 3001 3002 3001 3001 3004 3007 3009 3012 3015 3016 3016 3015 3013 3013 3014 3014 3016 3019 3021 3024 3027 3028 3029 3030 3032 3034 3035 3037 3038 3040 3041 3043 3046 3048 3049 3051 3053 3054 3056 3058 3060 3061 3062 3063 3065 3067 3069 3070 3072 3073 3074 3075 3075 3076
2989 2990 2990 2992 2994 2995 2997 2999 3000 3001 3001 3001 3002 3005 3007 3009 3011 3013 3014 3014 3014 3013 3013 3014 3015 3016 3018 3021 3024 3027 3028 3029 3030 3032 3033 3035 3037 3038 3040 3041 3043 3045 3046 3048 3050 3051 3053 3055 3057 3058 3059 3060 3061 3063 3064 3066 3067 3068 3070 3071 3071 3072 3073
2986 2988 2990 2992 2993 2995 2997 2998 2999 3001 3001 3002 3003 3005 3007 3009 3011 3011 3012 3013 3013 3013 3013 3014 3015 3016 3018 3021 3024 3026 3027 3029 3030 3031 3034 3036 3037 3038 3039 3041 3042 3043 3045 3046 3047 3049 3051 3052 3054 3056 3057 3058 3059 3060 3062 3063 3064 3066 3067 3068 3069 3069 3070